Hourly Weather Cetinje

Today, 19 June, Saturday

Time Temperature Precipitation Wind Pressure Humidity
00:00 +15°C° 0 mm 2 mps 690 mmHg 81%
01:00 +15°C° 0 mm 2 mps 690 mmHg 81%
02:00 +15°C° 0 mm 2 mps 690 mmHg 80%
03:00 +15°C° 0 mm 2 mps 690 mmHg 79%
04:00 +15°C° 0 mm 2 mps 690 mmHg 78%
05:00 +16°C° 0 mm 2 mps 690 mmHg 74%
06:00 +19°C° 0 mm 1 mps 690 mmHg 69%
07:00 +21°C° 0 mm 1 mps 691 mmHg 65%
08:00 +22°C° 0 mm 1 mps 691 mmHg 60%
09:00 +24°C° 0 mm 1 mps 691 mmHg 55%
10:00 +25°C° 0 mm 1 mps 691 mmHg 50%
11:00 +26°C° 0 mm 1 mps 691 mmHg 50%
12:00 +26°C° 0 mm 1 mps 690 mmHg 49%
13:00 +27°C° 0 mm 2 mps 690 mmHg 48%
14:00 +26°C° 0 mm 1 mps 690 mmHg 51%
15:00 +26°C° 0 mm 1 mps 690 mmHg 54%
16:00 +25°C° 0 mm 1 mps 689 mmHg 57%
17:00 +24°C° 0 mm 1 mps 689 mmHg 63%
18:00 +22°C° 0 mm 1 mps 689 mmHg 70%
19:00 +21°C° 0 mm 1 mps 689 mmHg 76%
20:00 +20°C° 0 mm 1 mps 689 mmHg 76%
21:00 +19°C° 0 mm 1 mps 689 mmHg 77%
22:00 +18°C° 0 mm 2 mps 689 mmHg 78%
23:00 +17°C° 0 mm 2 mps 689 mmHg 78%

Tomorrow, 20 June, Sunday

Time Temperature Precipitation Wind Pressure Humidity
00:00 +17°C° 0 mm 2 mps 689 mmHg 77%
01:00 +17°C° 0 mm 2 mps 689 mmHg 77%
02:00 +16°C° 0 mm 2 mps 689 mmHg 76%
03:00 +16°C° 0 mm 2 mps 688 mmHg 76%
04:00 +16°C° 0 mm 2 mps 688 mmHg 75%
05:00 +18°C° 0 mm 2 mps 689 mmHg 70%
06:00 +20°C° 0 mm 1 mps 689 mmHg 66%
07:00 +22°C° 0 mm 1 mps 689 mmHg 61%
08:00 +24°C° 0 mm 1 mps 689 mmHg 57%
09:00 +25°C° 0 mm 1 mps 690 mmHg 52%
10:00 +27°C° 0 mm 1 mps 690 mmHg 47%
11:00 +27°C° 0 mm 1 mps 690 mmHg 47%
12:00 +27°C° 0 mm 2 mps 690 mmHg 46%
13:00 +28°C° 0 mm 2 mps 690 mmHg 45%
14:00 +28°C° 0 mm 2 mps 689 mmHg 46%
15:00 +28°C° 0 mm 2 mps 689 mmHg 47%
16:00 +28°C° 0 mm 1 mps 689 mmHg 48%
17:00 +26°C° 0 mm 1 mps 688 mmHg 57%
18:00 +24°C° 0 mm 1 mps 688 mmHg 65%
19:00 +22°C° 0 mm 1 mps 688 mmHg 74%
20:00 +21°C° 0 mm 1 mps 688 mmHg 74%
21:00 +21°C° 0 mm 1 mps 688 mmHg 74%
22:00 +20°C° 0 mm 1 mps 688 mmHg 74%
23:00 +20°C° 0.1 mm 1 mps 688 mmHg 77%

Day after tomorrow, 21 June, Monday

Time Temperature Precipitation Wind Pressure Humidity
00:00 +19°C° 0.1 mm 1 mps 688 mmHg 80%
01:00 +19°C° 0.1 mm 1 mps 688 mmHg 82%
02:00 +19°C° 0 mm 1 mps 688 mmHg 83%
03:00 +18°C° 0 mm 1 mps 688 mmHg 83%
04:00 +17°C° 0 mm 2 mps 688 mmHg 83%
05:00 +20°C° 0 mm 1 mps 688 mmHg 78%
06:00 +22°C° 0 mm 1 mps 689 mmHg 73%
07:00 +24°C° 0 mm 1 mps 689 mmHg 68%
08:00 +25°C° 0 mm 1 mps 689 mmHg 63%
09:00 +26°C° 0 mm 1 mps 689 mmHg 57%
10:00 +28°C° 0 mm 1 mps 690 mmHg 52%
11:00 +29°C° 0 mm 1 mps 690 mmHg 50%
12:00 +29°C° 0 mm 2 mps 689 mmHg 48%
13:00 +30°C° 0 mm 2 mps 689 mmHg 46%
14:00 +30°C° 0 mm 2 mps 689 mmHg 47%
15:00 +30°C° 0 mm 2 mps 689 mmHg 47%
16:00 +30°C° 0 mm 2 mps 689 mmHg 47%
17:00 +27°C° 0 mm 2 mps 689 mmHg 55%
18:00 +25°C° 0 mm 2 mps 689 mmHg 63%
19:00 +23°C° 0 mm 2 mps 689 mmHg 71%
20:00 +21°C° 0 mm 2 mps 689 mmHg 71%
21:00 +21°C° 0 mm 2 mps 689 mmHg 71%
22:00 +20°C° 0 mm 2 mps 689 mmHg 71%
23:00 +20°C° 0 mm 2 mps 689 mmHg 72%

22 June, Tuesday

Time Temperature Precipitation Wind Pressure Humidity
00:00 +20°C° 0 mm 2 mps 689 mmHg 73%
01:00 +19°C° 0 mm 2 mps 689 mmHg 73%
02:00 +19°C° 0 mm 2 mps 689 mmHg 71%
03:00 +19°C° 0 mm 2 mps 689 mmHg 69%
04:00 +19°C° 0 mm 2 mps 689 mmHg 67%
05:00 +21°C° 0 mm 2 mps 689 mmHg 63%
06:00 +23°C° 0 mm 2 mps 689 mmHg 60%
07:00 +25°C° 0 mm 2 mps 689 mmHg 56%
08:00 +26°C° 0 mm 2 mps 690 mmHg 52%
09:00 +28°C° 0 mm 2 mps 690 mmHg 48%
10:00 +29°C° 0 mm 2 mps 690 mmHg 44%
11:00 +30°C° 0 mm 2 mps 690 mmHg 42%
12:00 +30°C° 0 mm 2 mps 690 mmHg 41%
13:00 +31°C° 0 mm 2 mps 690 mmHg 40%
14:00 +30°C° 0 mm 2 mps 690 mmHg 40%
15:00 +30°C° 0 mm 2 mps 690 mmHg 40%
16:00 +30°C° 0 mm 2 mps 690 mmHg 41%
17:00 +28°C° 0 mm 2 mps 690 mmHg 49%
18:00 +26°C° 0 mm 1 mps 690 mmHg 57%
19:00 +24°C° 0 mm 1 mps 690 mmHg 66%
20:00 +23°C° 0 mm 1 mps 690 mmHg 65%
21:00 +21°C° 0 mm 2 mps 690 mmHg 65%
22:00 +21°C° 0 mm 2 mps 690 mmHg 65%
23:00 +21°C° 0 mm 2 mps 690 mmHg 64%

23 June, Wednesday

Time Temperature Precipitation Wind Pressure Humidity
00:00 +20°C° 0 mm 2 mps 690 mmHg 64%
01:00 +20°C° 0 mm 2 mps 690 mmHg 64%
02:00 +20°C° 0 mm 2 mps 690 mmHg 63%
03:00 +20°C° 0 mm 2 mps 690 mmHg 61%
04:00 +20°C° 0 mm 2 mps 690 mmHg 60%
05:00 +23°C° 0 mm 2 mps 690 mmHg 57%
06:00 +25°C° 0 mm 1 mps 691 mmHg 53%
07:00 +27°C° 0 mm 1 mps 691 mmHg 50%
08:00 +28°C° 0 mm 1 mps 691 mmHg 46%
09:00 +30°C° 0 mm 1 mps 692 mmHg 42%
10:00 +31°C° 0 mm 1 mps 692 mmHg 37%
11:00 +32°C° 0 mm 1 mps 692 mmHg 36%
12:00 +32°C° 0 mm 2 mps 692 mmHg 35%
13:00 +34°C° 0 mm 2 mps 692 mmHg 33%
14:00 +34°C° 0 mm 2 mps 692 mmHg 34%
15:00 +33°C° 0 mm 1 mps 692 mmHg 34%
16:00 +33°C° 0 mm 1 mps 692 mmHg 34%
17:00 +30°C° 0 mm 1 mps 692 mmHg 41%
18:00 +28°C° 0 mm 1 mps 692 mmHg 49%
19:00 +26°C° 0 mm 1 mps 692 mmHg 56%
20:00 +25°C° 0 mm 1 mps 692 mmHg 55%
21:00 +24°C° 0 mm 2 mps 692 mmHg 55%
22:00 +24°C° 0 mm 3 mps 692 mmHg 54%
23:00 +23°C° 0 mm 2 mps 692 mmHg 55%

24 June, Thursday

Time Temperature Precipitation Wind Pressure Humidity
00:00 +23°C° 0 mm 2 mps 692 mmHg 55%
01:00 +23°C° 0 mm 2 mps 692 mmHg 55%
02:00 +23°C° 0 mm 2 mps 692 mmHg 54%
03:00 +23°C° 0 mm 2 mps 692 mmHg 53%
04:00 +21°C° 0 mm 2 mps 692 mmHg 52%
05:00 +24°C° 0 mm 2 mps 692 mmHg 50%
06:00 +26°C° 0 mm 2 mps 692 mmHg 48%
07:00 +28°C° 0 mm 2 mps 693 mmHg 46%
08:00 +29°C° 0 mm 2 mps 693 mmHg 41%
09:00 +31°C° 0 mm 2 mps 694 mmHg 36%
10:00 +34°C° 0 mm 2 mps 694 mmHg 31%
11:00 +34°C° 0 mm 2 mps 694 mmHg 30%
12:00 +34°C° 0 mm 2 mps 694 mmHg 29%
13:00 +35°C° 0 mm 2 mps 694 mmHg 27%
14:00 +35°C° 0 mm 2 mps 694 mmHg 28%
15:00 +35°C° 0 mm 2 mps 693 mmHg 28%
16:00 +34°C° 0 mm 1 mps 693 mmHg 28%
17:00 +31°C° 0 mm 1 mps 693 mmHg 35%
18:00 +28°C° 0 mm 1 mps 692 mmHg 41%
19:00 +26°C° 0 mm 1 mps 692 mmHg 48%
20:00 +25°C° 0 mm 2 mps 692 mmHg 46%
21:00 +25°C° 0 mm 2 mps 692 mmHg 44%
22:00 +24°C° 0 mm 2 mps 692 mmHg 43%
23:00 +24°C° 0 mm 2 mps 692 mmHg 42%
Show more

We Need Your Consent

Meteoprog and our Service Providers may store and access personal data such as cookies, device identifiers or other similar technologies on your device and process such data to personalise content and ads, as well as provide social media features and to analyse the traffic.

  • Store and/or access information on your device

    Cookies, device identifiers or other information can be stored or accessed on your device for the purposes indicated above.

  • Personalised ads and content, ad and content measurement, audience insights, and products development

    Ads and content can be personalised based on a profile. More data can be added to better personalise ads and content. Ad and content performance can be measured. Insights about the audience who saw the ads and content can be derived. Such data can be used to develop or improve user’s experience, systems and software.

By clicking ‘I Agree’ you will allow the use of indicated cookies, device identifiers, web beacons or other similar technologies. Your settings can be changed in the browser on your device.

For certain purposes, legitimate interests may be relied on, rather than consent. You can read more about this in our Privacy and Cookie Policy.